Regional Weather Roundup
Issued by NWS Kansas City/Pleasant Hill, MO

Home | Current Version | Previous Version | Graphics & Text | Print | Product List | Glossary Off
Versions: 1 2 3 4 5 6 7 8 9 10 11 12 13 14 15 16 17 18 19 20 21 22 23 24 25 26 27

000
ASUS43 KEAX 221610
RWREAX

WEATHER ROUNDUP FOR EASTERN KANSAS AND NORTHWEST MISSOURI
NATIONAL WEATHER SERVICE KANSAS CITY/PLEASANT HILL MO
1100 AM CDT WED MAR 22 2017

KSZ040-057-103>105-MOZ028-029-037-043-221700-
...KANSAS CITY METROPOLITAN AREA...

CITY           SKY/WX    TMP DP  RH WIND       PRES   REMARKS
K.C. INTL      PTSUNNY   47  23  38 E15       30.37R
K.C. DOWNTOWN  SUNNY     48  24  39 E10       30.37R
LEES SUMMIT    SUNNY     46  24  42 E14       30.36R
OLATHE - IXD   SUNNY     48  23  37 E13       30.35R
OLATHE - OJC   SUNNY     46  23  40 E15G22    30.34R
LAWRENCE       SUNNY     47  21  35 E13       30.37R

$$

MOZ001>008-011>017-020>025-030>033-038>040-044>046-053-054-221700-
...NORTHERN AND CENTRAL MISSOURI...

CITY           SKY/WX    TMP DP  RH WIND       PRES   REMARKS
ST. JOSEPH     CLOUDY    44  24  45 E10       30.41R
MOSBY          CLOUDY    45  23  42 E17       30.37F
WARRENSBURG    SUNNY     45  27  49 E14G21    30.36F
WHITEMAN AFB   PTSUNNY   47  28  46 E13G21    30.35F
CLINTON        MOSUNNY   48  27  43 E16       30.35F
SEDALIA        SUNNY     48  30  49 E17G23    30.38F
WARSAW         NOT AVBL
CHILLICOTHE      N/A     41  28  60 E10       30.44F WCI  35
KIRKSVILLE     CLOUDY    40  25  55 E15       30.47S WCI  32

$$

MOZ041-047>049-056>058-063>065-088>090-097-221700-
...EASTERN AND SOUTHERN MISSOURI...

CITY           SKY/WX    TMP DP  RH WIND       PRES   REMARKS
ST. LOUIS INTL PTSUNNY   43  22  43 E13       30.48F
SPIRIT OF STL  MOSUNNY   42  23  46 E10       30.47F
COLUMBIA       SUNNY     45  30  55 E14       30.42S
JEFFERSON CITY CLOUDY    45  27  49 E14       30.43S
ROLLA          SUNNY     45  30  55 NE13      30.38F
OSAGE BEACH    SUNNY    N/A N/A N/A E8G18     30.39S
SPRINGFIELD    PTSUNNY   52  26  36 E16       30.31S
BRANSON        CLOUDY    46  36  66 E8        30.34R
JOPLIN         CLOUDY    52  28  39 E15       30.28F
WEST PLAINS    MOSUNNY   50  31  48 E14       30.35S

$$

IAZ060-094-KSZ022-034>040-054-083-096-NEZ052-066-093-221700-
...KANSAS...SOUTHEAST NEBRASKA AND IOWA...

CITY           SKY/WX    TMP DP  RH WIND       PRES   REMARKS
TOPEKA         SUNNY     47  24  40 E12       30.36R
MANHATTAN      CLOUDY    46  25  43 E12       30.34F
EMPORIA        MOSUNNY   50  25  37 E16       30.31R
CHANUTE        SUNNY     53  27  36 E15       30.28R
WICHITA        CLOUDY    50  28  42 E10       30.27R
OMAHA          PTSUNNY   36  22  56 SE6       30.44R WCI  31
LINCOLN        CLOUDY    41  19  41 SE12      30.40F WCI  34
FALLS CITY     CLOUDY    43  21  41 SE10      30.39S
LAMONI         CLOUDY    37  25  61 E10       30.43S WCI  30
DES MOINES     CLOUDY    37  24  59 SE17      30.48F WCI  27

$$





USA.gov is the U.S. government's official web portal to all federal, state and local government web resources and services.